Location: 22
(39.7117°N, 89.5929°W)
Time: 18:37:05
(UTC-05:00)

Vanguard 3 - Pass Details

Date: 03 February 2023
Orbit: 508 x 3249 km, 33.4° (Epoch: 30 March)

Event Time Altitude Azimuth Distance (km) Brightness Sun altitude
Rises 21:36:22 0° 269° (W) 4,988 11.8 -48.9°
Reaches altitude 10° 21:39:09 10° 266° (W) 4,299 11.2 -49.4°
Enters shadow 21:47:47 53° 240° (WSW) 2,883 9.7 -50.9°
Maximum altitude 21:51:47 66° 188° (S) 2,864 - -51.6°
Drops below altitude 10° 22:10:53 10° 113° (ESE) 6,179 - -54.8°
Sets 22:15:49 0° 111° (ESE) 7,202 - -55.5°
